CW9414 Weather Reports


Display with metric or nautical units.
time (UTC)temp
F
wind
direction
speed
MPH
gust
MPH
rain 1hr
in
rain 24hr
in
rain mn
in
humidity
%
barometer
mb
20260506201409 86 167 2.0 5.0 0.00 0.00 0.00 71 1004.9
20260506200409 86 161 0.0 5.0 0.00 0.00 0.00 70 1004.9
20260506195409 87 158 1.0 6.0 0.00 0.00 0.00 68 1004.9
20260506194409 87 159 1.0 4.0 0.00 0.00 0.00 68 1005.0
20260506193409 87 153 1.0 5.0 0.00 0.00 0.00 69 1005.0
20260506192409 87 152 1.0 7.0 0.00 0.00 0.00 69 1005.1
20260506191409 87 145 3.0 10.0 0.00 0.00 0.00 69 1005.4
20260506190412 87 165 5.0 5.0 0.00 0.00 0.00 70 1005.4
20260506185410 86 146 1.0 5.0 0.00 0.00 0.00 71 1005.6
20260506184409 85 151 2.0 4.0 0.00 0.00 0.00 73 1005.6
20260506183409 85 151 1.0 5.0 0.00 0.00 0.00 74 1005.6
20260506182409 85 151 5.0 5.0 0.00 0.00 0.00 75 1006.0
20260506181409 84 151 0.0 3.0 0.00 0.00 0.00 75 1006.2
20260506180409 84 151 0.0 2.0 0.00 0.00 0.00 76 1006.2
20260506175409 83 151 0.0 4.0 0.00 0.00 0.00 78 1006.6
20260506174412 83 151 0.0 2.0 0.00 0.00 0.00 78 1006.8
20260506173409 83 151 0.0 4.0 0.00 0.00 0.00 79 1006.8
20260506172409 82 151 2.0 4.0 0.00 0.00 0.00 79 1006.8
20260506171409 82 151 1.0 2.0 0.00 0.00 0.00 80 1007.0
20260506170409 82 151 0.0 5.0 0.00 0.00 0.00 81 1007.0
20260506165409 81 151 1.0 4.0 0.00 0.00 0.00 82 1007.0
20260506164409 81 151 3.0 5.0 0.00 0.00 0.00 82 1007.0
20260506163412 80 151 1.0 3.0 0.00 0.00 0.00 82 1007.0
20260506162409 80 151 0.0 4.0 0.00 0.00 0.00 82 1006.6
20260506161409 80 151 4.0 6.0 0.00 0.00 0.00 82 1006.5
20260506160409 80 150 0.0 5.0 0.00 0.00 0.00 83 1006.5
20260506155409 80 150 0.0 1.0 0.00 0.00 0.00 84 1006.4
20260506154409 80 150 0.0 4.0 0.00 0.00 0.00 84 1006.4
20260506153412 80 150 1.0 2.0 0.00 0.00 0.00 85 1006.4
20260506152409 79 150 0.0 1.0 0.00 0.00 0.00 86 1006.0
20260506151412 79 150 0.0 2.0 0.00 0.00 0.00 86 1006.0
20260506150409 79 150 1.0 4.0 0.00 0.00 0.00 87 1006.0
20260506145409 79 150 1.0 5.0 0.00 0.00 0.00 88 1005.6
20260506144409 78 150 1.0 5.0 0.00 0.00 0.00 89 1005.4
20260506143409 78 150 0.0 3.0 0.00 0.00 0.00 90 1005.4
20260506142409 78 150 0.0 3.0 0.00 0.00 0.00 91 1005.5
20260506141412 78 150 2.0 2.0 0.00 0.00 0.00 92 1005.5
20260506140409 77 150 2.0 5.0 0.00 0.00 0.00 92 1005.5
20260506135409 77 150 0.0 3.0 0.00 0.00 0.00 92 1005.5
20260506134409 77 150 0.0 3.0 0.00 0.00 0.00 93 1005.5
20260506133408 77 150 0.0 2.0 0.00 0.00 0.00 93 1005.5
20260506132410 76 150 1.0 1.0 0.00 0.00 0.00 93 1005.6
20260506131409 76 150 0.0 1.0 0.00 0.00 0.00 92 1005.6
20260506130413 76 150 0.0 2.0 0.00 0.00 0.00 92 1005.6
20260506125409 76 150 0.0 2.0 0.00 0.00 0.00 92 1005.6
20260506124408 76 150 2.0 2.0 0.00 0.00 0.00 92 1005.5
20260506123409 75 150 0.0 0.0 0.00 0.00 0.00 92 1005.5
20260506122412 75 150 0.0 2.0 0.00 0.00 0.00 92 1005.4
20260506121409 75 150 0.0 2.0 0.00 0.00 0.00 92 1005.2
20260506120409 75 150 0.0 2.0 0.00 0.00 0.00 91 1005.2
20260506115409 75 150 0.0 0.0 0.00 0.00 0.00 91 1005.0
20260506114409 75 150 0.0 1.0 0.00 0.00 0.00 91 1004.9
20260506113408 75 150 0.0 2.0 0.00 0.00 0.00 91 1004.9
20260506112409 75 150 2.0 2.0 0.00 0.00 0.00 91 1004.7
20260506111408 75 150 0.0 2.0 0.00 0.00 0.00 90 1004.5
20260506110408 75 150 0.0 5.0 0.00 0.00 0.00 90 1004.5
20260506105409 75 150 0.0 3.0 0.00 0.00 0.00 90 1004.4
20260506104409 75 150 0.0 0.0 0.00 0.00 0.00 89 1004.5
20260506103408 75 150 0.0 2.0 0.00 0.00 0.00 89 1004.5
20260506102409 75 150 0.0 0.0 0.00 0.00 0.00 89 1004.5
20260506101412 75 150 0.0 0.0 0.00 0.00 0.00 89 1004.5
20260506100412 76 150 0.0 3.0 0.00 0.00 0.00 89 1004.5
20260506095408 76 150 3.0 5.0 0.00 0.00 0.00 89 1004.2
20260506094409 76 150 0.0 4.0 0.00 0.00 0.00 88 1004.1
20260506093408 76 150 0.0 4.0 0.00 0.00 0.00 88 1004.1
20260506092408 76 150 1.0 5.0 0.00 0.00 0.00 88 1004.1
20260506091408 76 150 4.0 6.0 0.00 0.00 0.00 88 1004.4
20260506090408 77 150 3.0 4.0 0.00 0.00 0.00 88 1004.4
20260506085409 77 150 0.0 4.0 0.00 0.00 0.00 88 1004.5
20260506084408 77 150 3.0 6.0 0.00 0.00 0.00 88 1004.5
20260506083408 77 150 2.0 4.0 0.00 0.00 0.00 87 1004.5
20260506082408 77 150 1.0 5.0 0.00 0.00 0.00 87 1004.6
20260506081411 77 150 3.0 4.0 0.00 0.00 0.00 87 1004.6
20260506080408 77 150 1.0 5.0 0.00 0.00 0.00 87 1004.6
20260506073409 77 155 2.0 5.0 0.00 0.00 0.00 87 1005.0
20260506072409 77 155 2.0 6.0 0.00 0.00 0.00 87 1005.0
20260506071408 77 156 3.0 4.0 0.00 0.00 0.00 87 1005.1
20260506070412 77 156 0.0 3.0 0.00 0.00 0.00 87 1005.1
20260506062408 77 155 0.0 3.0 0.00 0.00 0.00 86 1005.5
20260506061409 77 155 0.0 4.0 0.00 0.00 0.00 86 1005.5
20260506060412 77 155 0.0 5.0 0.00 0.00 0.00 86 1005.5
20260506051408 77 155 0.0 4.0 0.00 0.00 0.00 85 1005.3
20260506050408 78 155 0.0 4.0 0.00 0.00 0.00 84 1005.3
20260506044408 78 155 0.0 3.0 0.00 0.00 0.00 83 1005.5
20260506043408 78 155 1.0 2.0 0.00 0.00 0.00 83 1005.5
20260506042408 78 155 0.0 4.0 0.00 0.00 0.00 83 1005.1
20260506041408 78 155 0.0 7.0 0.00 0.00 0.00 82 1005.3
20260506040412 78 164 2.0 4.0 0.00 0.00 0.00 82 1005.3
20260506035412 78 170 0.0 3.0 0.00 0.00 0.00 82 1005.1
20260506034408 78 168 1.0 5.0 0.00 0.00 0.00 81 1004.8
20260506033408 78 170 0.0 4.0 0.00 0.00 0.00 81 1004.8
20260506032408 78 142 3.0 7.0 0.00 0.00 0.00 81 1004.6
20260506031408 79 161 3.0 5.0 0.00 0.00 0.00 81 1004.6
20260506030408 79 165 1.0 5.0 0.00 0.00 0.00 80 1004.6
20260506025412 79 167 3.0 6.0 0.00 0.00 0.00 80 1004.5
20260506024411 79 196 0.0 5.0 0.00 0.00 0.00 79 1004.2
20260506023408 79 170 3.0 5.0 0.00 0.00 0.00 79 1004.2
20260506022409 79 155 1.0 5.0 0.00 0.00 0.00 79 1004.0
20260506021408 79 166 1.0 4.0 0.00 0.00 0.00 78 1003.9
20260506020408 79 183 1.0 3.0 0.00 0.00 0.00 77 1003.9
20260506015408 79 192 1.0 5.0 0.00 0.00 0.00 77 1003.6
20260506014411 80 188 1.0 4.0 0.00 0.00 0.00 76 1003.5
20260506013411 80 159 4.0 4.0 0.00 0.00 0.00 75 1003.5
20260506012408 80 161 1.0 5.0 0.00 0.00 0.00 75 1003.0
20260506011408 80 178 0.0 7.0 0.00 0.00 0.00 74 1003.0
20260506010411 80 139 0.0 9.0 0.00 0.00 0.00 74 1003.0
20260506005408 80 209 1.0 5.0 0.00 0.00 0.00 73 1003.0
20260506004408 81 210 3.0 4.0 0.00 0.00 0.00 72 1002.7
20260506003408 81 150 2.0 8.0 0.00 0.00 0.00 72 1002.8
20260506002408 81 153 2.0 7.0 0.00 0.00 0.00 71 1002.8
20260506001409 81 190 6.0 6.0 0.00 0.00 0.00 72 1002.9
20260506000408 81 148 8.0 8.0 0.00 0.00 0.00 71 1002.9
20260505235408 82 192 2.0 8.0 0.00 0.00 0.00 71 1002.6
20260505234408 82 197 3.0 5.0 0.00 0.00 0.00 71 1002.6
20260505233411 82 148 2.0 6.0 0.00 0.00 0.00 71 1002.6
20260505232408 82 138 7.0 10.0 0.00 0.00 0.00 70 1002.7
20260505231408 82 153 3.0 6.0 0.00 0.00 0.00 70 1002.7
20260505230408 83 142 1.0 6.0 0.00 0.00 0.00 71 1002.7
20260505225408 83 126 3.0 7.0 0.00 0.00 0.00 71 1002.7
20260505224408 83 153 0.0 7.0 0.00 0.00 0.00 70 1002.8
20260505223408 83 203 2.0 8.0 0.00 0.00 0.00 69 1002.8
20260505222411 84 174 3.0 7.0 0.00 0.00 0.00 69 1002.9
20260505221411 84 163 5.0 10.0 0.00 0.00 0.00 68 1002.9
20260505220411 84 173 2.0 8.0 0.00 0.00 0.00 67 1002.9
20260505215408 84 145 1.0 8.0 0.00 0.00 0.00 67 1003.1
20260505214409 85 167 2.0 5.0 0.00 0.00 0.00 67 1003.3
20260505213411 85 203 3.0 10.0 0.00 0.00 0.00 67 1003.3
20260505212408 84 185 3.0 9.0 0.00 0.00 0.00 67 1003.5
20260505211407 84 209 3.0 8.0 0.00 0.00 0.00 68 1003.6
20260505210408 84 141 4.0 11.0 0.00 0.00 0.00 68 1003.6
20260505205407 84 153 3.0 10.0 0.00 0.00 0.00 68 1004.0
20260505204407 84 205 2.0 9.0 0.00 0.00 0.00 68 1004.1
20260505203408 84 185 5.0 12.0 0.00 0.00 0.00 68 1004.1
20260505202407 84 174 2.0 10.0 0.00 0.00 0.00 68 1004.3